When you browse on this site, cookies collect data to enhance your experience and personalize the content and advertising you see.
Visit our Privacy Policy to learn more. By continuing to use the site, you agree to this use of cookies and data.
  • In Latvia
  • List of Countries
  • For 7 days
  • Water Temperature
  • Satellite Maps
  • Weather Map
  • Weather Widgets
  • user-avatar
    Login

    Hourly Weather Konstantyna

    Today, 16 January, Wednesday

    Time Temperature Precipitation Wind Pressure Humidity
    00:00 +6°C° 0 mm 1 mps 712 mmHg 88%
    01:00 +6°C° 0 mm 1 mps 712 mmHg 87%
    02:00 +6°C° 0 mm 1 mps 711 mmHg 86%
    03:00 +6°C° 0 mm 1 mps 711 mmHg 85%
    04:00 +6°C° 0 mm 1 mps 711 mmHg 83%
    05:00 +6°C° 0 mm 1 mps 711 mmHg 81%
    06:00 +5°C° 0 mm 2 mps 711 mmHg 79%
    07:00 +6°C° 0 mm 2 mps 712 mmHg 71%
    08:00 +8°C° 0 mm 2 mps 712 mmHg 62%
    09:00 +10°C° 0 mm 2 mps 712 mmHg 54%
    10:00 +11°C° 0 mm 3 mps 712 mmHg 50%
    11:00 +12°C° 0 mm 3 mps 712 mmHg 45%
    12:00 +13°C° 0 mm 3 mps 712 mmHg 40%
    13:00 +14°C° 0 mm 3 mps 712 mmHg 41%
    14:00 +14°C° 0 mm 3 mps 711 mmHg 41%
    15:00 +14°C° 0 mm 3 mps 711 mmHg 41%
    16:00 +12°C° 0 mm 3 mps 711 mmHg 46%
    17:00 +10°C° 0 mm 2 mps 710 mmHg 52%
    18:00 +9°C° 0 mm 1 mps 710 mmHg 58%
    19:00 +9°C° 0 mm 1 mps 710 mmHg 60%
    20:00 +8°C° 0 mm 1 mps 710 mmHg 61%
    21:00 +8°C° 0 mm 1 mps 710 mmHg 62%
    22:00 +8°C° 0 mm 1 mps 710 mmHg 63%
    23:00 +6°C° 0 mm 2 mps 710 mmHg 64%

    Tomorrow, 17 January, Thursday

    Time Temperature Precipitation Wind Pressure Humidity
    00:00 +6°C° 0 mm 2 mps 710 mmHg 65%
    01:00 +6°C° 0 mm 2 mps 710 mmHg 67%
    02:00 +6°C° 0 mm 2 mps 710 mmHg 69%
    03:00 +6°C° 0 mm 2 mps 709 mmHg 72%
    04:00 +5°C° 0 mm 2 mps 709 mmHg 74%
    05:00 +5°C° 0 mm 2 mps 709 mmHg 75%
    06:00 +5°C° 0 mm 2 mps 709 mmHg 77%
    07:00 +6°C° 0 mm 2 mps 709 mmHg 72%
    08:00 +7°C° 0 mm 2 mps 710 mmHg 67%
    09:00 +8°C° 0 mm 2 mps 710 mmHg 62%
    10:00 +10°C° 0 mm 2 mps 710 mmHg 56%
    11:00 +12°C° 0 mm 2 mps 710 mmHg 51%
    12:00 +13°C° 0 mm 2 mps 709 mmHg 45%
    13:00 +13°C° 0 mm 2 mps 709 mmHg 45%
    14:00 +13°C° 0 mm 2 mps 709 mmHg 46%
    15:00 +13°C° 0 mm 2 mps 709 mmHg 46%
    16:00 +12°C° 0 mm 1 mps 709 mmHg 56%
    17:00 +10°C° 0 mm 1 mps 709 mmHg 65%
    18:00 +8°C° 0 mm 1 mps 708 mmHg 74%
    19:00 +8°C° 0 mm 1 mps 709 mmHg 78%
    20:00 +7°C° 0 mm 1 mps 709 mmHg 81%
    21:00 +6°C° 0 mm 0 mps 709 mmHg 84%
    22:00 +5°C° 0 mm 0 mps 709 mmHg 84%
    23:00 +5°C° 0 mm 0 mps 709 mmHg 84%

    Day after tomorrow, 18 January, Friday

    Time Temperature Precipitation Wind Pressure Humidity
    00:00 +5°C° 0 mm 0 mps 709 mmHg 84%
    01:00 +6°C° 0 mm 1 mps 708 mmHg 83%
    02:00 +6°C° 0 mm 1 mps 708 mmHg 82%
    03:00 +6°C° 0 mm 1 mps 708 mmHg 81%
    04:00 +6°C° 0 mm 1 mps 708 mmHg 81%
    05:00 +5°C° 0 mm 1 mps 708 mmHg 80%
    06:00 +5°C° 0 mm 1 mps 708 mmHg 80%
    07:00 +7°C° 0 mm 1 mps 709 mmHg 73%
    08:00 +9°C° 0 mm 1 mps 709 mmHg 66%
    09:00 +11°C° 0 mm 1 mps 710 mmHg 60%
    10:00 +12°C° 0 mm 1 mps 710 mmHg 55%
    11:00 +13°C° 0 mm 1 mps 709 mmHg 50%
    12:00 +14°C° 0 mm 2 mps 709 mmHg 46%
    13:00 +14°C° 0 mm 2 mps 709 mmHg 46%
    14:00 +14°C° 0 mm 2 mps 709 mmHg 47%
    15:00 +14°C° 0 mm 2 mps 708 mmHg 48%
    16:00 +12°C° 0 mm 2 mps 708 mmHg 58%
    17:00 +10°C° 0 mm 1 mps 708 mmHg 68%
    18:00 +8°C° 0 mm 1 mps 708 mmHg 78%
    19:00 +8°C° 0 mm 1 mps 709 mmHg 81%
    20:00 +7°C° 0 mm 1 mps 709 mmHg 85%
    21:00 +6°C° 0 mm 0 mps 709 mmHg 88%
    22:00 +5°C° 0 mm 0 mps 709 mmHg 88%
    23:00 +5°C° 0 mm 0 mps 709 mmHg 89%

    19 January, Saturday

    Time Temperature Precipitation Wind Pressure Humidity
    00:00 +5°C° 0 mm 0 mps 709 mmHg 89%
    01:00 +5°C° 0 mm 0 mps 709 mmHg 89%
    02:00 +5°C° 0 mm 0 mps 708 mmHg 89%
    03:00 +4°C° 0 mm 0 mps 708 mmHg 90%
    04:00 +4°C° 0 mm 0 mps 708 mmHg 90%
    05:00 +4°C° 0 mm 0 mps 708 mmHg 89%
    06:00 +4°C° 0 mm 0 mps 708 mmHg 89%
    07:00 +7°C° 0 mm 1 mps 709 mmHg 84%
    08:00 +8°C° 0 mm 1 mps 709 mmHg 78%
    09:00 +10°C° 0 mm 1 mps 710 mmHg 72%
    10:00 +11°C° 0 mm 1 mps 710 mmHg 66%
    11:00 +12°C° 0 mm 1 mps 709 mmHg 60%
    12:00 +13°C° 0 mm 2 mps 709 mmHg 55%
    13:00 +13°C° 0.1 mm 2 mps 709 mmHg 55%
    14:00 +13°C° 0.1 mm 2 mps 709 mmHg 55%
    15:00 +13°C° 0.1 mm 2 mps 708 mmHg 55%
    16:00 +10°C° 0.1 mm 2 mps 708 mmHg 65%
    17:00 +10°C° 0.1 mm 1 mps 708 mmHg 75%
    18:00 +8°C° 0.1 mm 1 mps 708 mmHg 84%
    19:00 +7°C° 0 mm 1 mps 708 mmHg 86%
    20:00 +7°C° 0 mm 1 mps 708 mmHg 88%
    21:00 +5°C° 0 mm 0 mps 709 mmHg 90%
    22:00 +6°C° 0 mm 1 mps 708 mmHg 88%
    23:00 +6°C° 0 mm 1 mps 708 mmHg 86%

    20 January, Sunday

    Time Temperature Precipitation Wind Pressure Humidity
    00:00 +6°C° 0 mm 1 mps 708 mmHg 84%
    01:00 +5°C° 0 mm 2 mps 708 mmHg 82%
    02:00 +5°C° 0 mm 2 mps 707 mmHg 80%
    03:00 +5°C° 0 mm 2 mps 707 mmHg 78%
    04:00 +5°C° 0 mm 2 mps 707 mmHg 78%
    05:00 +5°C° 0 mm 2 mps 707 mmHg 78%
    06:00 +5°C° 0 mm 2 mps 707 mmHg 78%
    07:00 +7°C° 0 mm 3 mps 707 mmHg 74%
    08:00 +8°C° 0 mm 3 mps 707 mmHg 69%
    09:00 +8°C° 0 mm 4 mps 707 mmHg 64%
    10:00 +10°C° 0 mm 5 mps 707 mmHg 63%
    11:00 +11°C° 0 mm 6 mps 706 mmHg 61%
    12:00 +12°C° 0 mm 7 mps 706 mmHg 59%
    13:00 +11°C° 0.3 mm 6 mps 706 mmHg 63%
    14:00 +10°C° 0.3 mm 6 mps 705 mmHg 67%
    15:00 +10°C° 0.3 mm 6 mps 705 mmHg 72%
    16:00 +9°C° 0.7 mm 5 mps 705 mmHg 75%
    17:00 +8°C° 0.7 mm 4 mps 705 mmHg 79%
    18:00 +8°C° 0.7 mm 3 mps 705 mmHg 83%
    19:00 +8°C° 0 mm 3 mps 705 mmHg 84%
    20:00 +8°C° 0 mm 3 mps 706 mmHg 85%
    21:00 +8°C° 0 mm 3 mps 706 mmHg 85%
    22:00 +7°C° 0.1 mm 2 mps 706 mmHg 87%
    23:00 +7°C° 0.1 mm 2 mps 706 mmHg 88%

    21 January, Monday

    Time Temperature Precipitation Wind Pressure Humidity
    00:00 +7°C° 0.1 mm 2 mps 706 mmHg 90%
    01:00 +6°C° 0.1 mm 2 mps 707 mmHg 91%
    02:00 +6°C° 0.1 mm 2 mps 707 mmHg 92%
    03:00 +6°C° 0.1 mm 2 mps 707 mmHg 93%
    04:00 +5°C° 0 mm 2 mps 707 mmHg 93%
    05:00 +6°C° 0 mm 1 mps 707 mmHg 93%
    06:00 +5°C° 0 mm 1 mps 707 mmHg 93%
    07:00 +5°C° 0 mm 2 mps 708 mmHg 87%
    08:00 +7°C° 0 mm 2 mps 708 mmHg 81%
    09:00 +8°C° 0 mm 3 mps 709 mmHg 75%
    10:00 +9°C° 0 mm 3 mps 709 mmHg 69%
    11:00 +10°C° 0 mm 3 mps 709 mmHg 63%
    12:00 +11°C° 0 mm 4 mps 709 mmHg 57%
    13:00 +11°C° 0.1 mm 4 mps 708 mmHg 56%
    14:00 +11°C° 0.1 mm 4 mps 708 mmHg 55%
    15:00 +11°C° 0.1 mm 4 mps 708 mmHg 54%
    16:00 +9°C° 0 mm 3 mps 708 mmHg 62%
    17:00 +8°C° 0 mm 2 mps 708 mmHg 70%
    18:00 +7°C° 0 mm 1 mps 708 mmHg 79%
    19:00 +7°C° 0 mm 1 mps 708 mmHg 80%
    20:00 +5°C° 0 mm 0 mps 708 mmHg 82%
    21:00 +5°C° 0 mm 0 mps 708 mmHg 83%
    22:00 +5°C° 0 mm 0 mps 708 mmHg 85%
    23:00 +5°C° 0 mm 1 mps 708 mmHg 86%
    Show more